Location: Newark
(47.4833°N, 7.5167°E)
Time: 00:29:48
(UTC+00:00)

N. Korean satellite - Pass Details

Date: 19 October 2019
Orbit: 456 x 506 km, 97.2° (Epoch: 12 November)

Event Time Altitude Azimuth Distance (km) Brightness Sun altitude
Rises 17:24:10 0° 201° (SSW) 2,463 10.5 -8.9°
Reaches altitude 10° 17:26:37 10° 220° (SW) 1,597 9.9 -9.4°
Maximum altitude 17:29:08 19° 267° (W) 1,157 9.8 -9.8°
Drops below altitude 10° 17:31:41 10° 315° (NW) 1,616 9.8 -10.2°
Sets 17:34:11 0° 333° (NNW) 2,504 10.5 -10.6°
